カタログに戻る

SBSS

USA 216

運用中軍事SSO
NORAD 37168·PAYLOAD·🇺🇸 United States

打ち上げ Sep 26, 2010 から Vandenberg Space Force Base

Loading…

次のパス (今後24時間)

TLE

最新Source: Space-Track

元期: Sep 14, 2026, 04:48 UTC

1 37168U 10048A   26257.20064016  .00003068  00000-0  14666-3 0  9992
2 37168  97.7179 144.3616 0078191 256.0354 222.9936 15.17143789865966

AllMySatでSBSSをリアルタイム追跡

Download on the App Store